[[{"header":{"parameterUnit":"m.s-1","parameterCategory":1,"la1":30.2992,"la2":30.254,"lo1":-89.0895,"lo2":-89.0443,"dy":0.0025,"dx":0.0025,"nx":19,"ny":19,"refTime":"2026-03-13T03:00:00:Z","depth":0,"parameterNumber":2,"parameterNumberName":"U-component_of_WINDS"},"data":[0,0,0,-2.25,-2.2502,-2.258,-2.258,-2.269,-2.2691,0,0,0,0,0,0,0,0,0,0,0,-2.2482,-2.2483,-2.25,-2.2502,-2.258,-2.258,-2.269,-2.2691,0,0,0,0,0,0,0,0,0,0,0,-2.2482,-2.2483,-2.2484,-2.2503,-2.258,-2.258,-2.269,-2.2628,0,0,0,0,0,0,0,0,0,0,-2.255,-2.2538,-2.2483,-2.2484,-2.2503,-2.258,-2.258,-2.2624,-2.2631,-2.2659,0,-2.2684,0,-2.2689,-2.2699,-2.27,0,0,0,-2.2499,-2.2533,-2.2549,-2.2484,-2.2504,-2.258,-2.2544,-2.2628,-2.2636,-2.2668,-2.2685,-2.2689,-2.2691,-2.27,-2.27,-2.2869,-2.2869,0,0,-2.2494,-2.2499,-2.2543,-2.2554,-2.2542,-2.2541,-2.2546,-2.2633,-2.2652,-2.2686,-2.2691,-2.2693,-2.2701,-2.2702,-2.2868,-2.2869,0,0,0,-2.2484,-2.2497,-2.251,-2.255,-2.2563,-2.2544,-2.2549,-2.2648,-2.2652,-2.2693,-2.2694,-2.2701,-2.2703,-2.2867,-2.2868,-2.292,0,0,0,-2.2482,-2.2491,-2.2509,-2.2513,-2.2562,-2.2607,-2.2563,-2.2646,-2.2656,-2.2694,-2.2701,-2.2704,-2.2865,-2.2867,-2.2916,-2.2944,0,0,0,-2.2476,-2.249,-2.2503,-2.2513,-2.2546,-2.2605,-2.2614,-2.2648,-2.2657,-2.27,-2.2704,-2.2865,-2.2867,-2.2913,-2.2938,-2.299,0,0,0,-2.2471,-2.2548,-2.2504,-2.2591,-2.2546,-2.2636,-2.2613,-2.268,-2.2723,-2.2702,-2.2866,-2.2868,-2.2912,-2.2935,-2.2986,-2.3034,-2.3054,0,0,-2.2571,-2.256,-2.2611,-2.2574,-2.2673,-2.2624,-2.2731,-2.2766,-2.2766,-2.2835,-2.2839,-2.2917,-2.2938,-2.2989,-2.3165,-2.3181,0,0,0,-2.2645,-2.2681,-2.2707,-2.2747,-2.2775,-2.2801,-2.2819,-2.2832,-2.289,-2.2802,-2.2949,-2.2961,-2.2991,-2.3014,-2.3028,-2.3053,-2.2878,-2.2878,-2.2878,-2.2795,-2.279,-2.2874,-2.2878,-2.2918,-2.2935,-2.2967,-2.2987,-2.2971,-2.3006,-2.3027,-2.3134,-2.3161,-2.3171,-2.3198,-2.3051,-2.3051,-2.3052,-2.3052,-2.2942,-2.2993,-2.2969,-2.3042,-2.3037,-2.3099,-2.3118,-2.3105,-2.3162,-2.3118,-2.3144,-2.3097,-2.3189,-2.3212,-2.3056,-2.3055,-2.3055,-2.3054,-2.3054,-2.304,-2.3063,-2.3077,-2.3135,-2.3181,-2.3183,-2.3239,-2.3232,-2.3226,-2.3252,-2.3273,-2.3272,-2.3271,-2.3262,-2.3263,-2.3263,-2.3263,-2.3263,-2.3264,-2.3136,-2.315,-2.3197,-2.3233,-2.3258,-2.3291,-2.3309,-2.3334,-2.336,-2.3351,-2.3351,-2.3332,-2.3198,-2.3165,-2.3269,-2.3268,-2.3268,-2.3267,-2.3267,-2.3288,-2.3252,-2.3326,-2.3351,-2.3393,-2.3439,-2.3429,-2.348,-2.35,-2.3528,-2.3503,-2.3406,-2.3394,-2.3384,-2.3356,-2.3504,-2.3504,-2.3504,-2.3504,-2.3371,-2.3364,-2.3438,-2.3478,-2.3517,-2.3516,-2.36,-2.3615,-2.3626,-2.3638,-2.3616,-2.3578,-2.3568,-2.3563,-2.3548,-2.3522,-2.3709,-2.3709,-2.3709,-2.3464,-2.3461,-2.3533,-2.3542,-2.3574,-2.3602,-2.3681,-2.373,-2.3734,-2.3717,-2.3647,-2.3639,-2.3579,-2.3559,-2.3541,-2.3518,-2.3471,0,0]},{"header":{"parameterUnit":"m.s-1","parameterCategory":1,"la1":30.2992,"la2":30.254,"lo1":-89.0895,"lo2":-89.0443,"dy":0.0025,"dx":0.0025,"nx":19,"ny":19,"refTime":"2026-03-13T03:00:00:Z","depth":0,"parameterNumber":3,"parameterNumberName":"V-component_of_WINDS"},"data":[0,0,0,0.1741,0.1744,0.1866,0.1867,0.2031,0.2033,0,0,0,0,0,0,0,0,0,0,0,0.1706,0.1707,0.1741,0.1744,0.1866,0.1867,0.2031,0.2033,0,0,0,0,0,0,0,0,0,0,0,0.1706,0.1707,0.1708,0.1745,0.1866,0.1867,0.2031,0.1936,0,0,0,0,0,0,0,0,0,0,0.1817,0.1784,0.1707,0.1708,0.1745,0.1866,0.1867,0.1932,0.1942,0.1978,0,0.2006,0,0.2022,0.2044,0.2044,0,0,0,0.1744,0.1775,0.1807,0.1708,0.1746,0.1866,0.1811,0.1938,0.1949,0.1992,0.2009,0.2015,0.2025,0.2045,0.2046,0.2244,0.2245,0,0,0.1738,0.1729,0.1799,0.1815,0.1792,0.1807,0.1815,0.1945,0.1964,0.2009,0.2019,0.2027,0.2046,0.2047,0.2244,0.2245,0,0,0,0.1718,0.1725,0.1753,0.1808,0.1829,0.1811,0.182,0.1958,0.1968,0.202,0.2029,0.2047,0.2049,0.2243,0.2244,0.2283,0,0,0,0.1714,0.1713,0.175,0.1747,0.1827,0.1894,0.1831,0.1959,0.1974,0.2028,0.2047,0.2051,0.2241,0.2243,0.2279,0.2304,0,0,0,0.1698,0.1711,0.1729,0.1746,0.1798,0.1893,0.191,0.1962,0.198,0.2044,0.2051,0.2241,0.2243,0.2276,0.2299,0.2356,0,0,0,0.1679,0.1761,0.1729,0.1825,0.1797,0.1913,0.1909,0.1997,0.2057,0.2048,0.2242,0.2244,0.2275,0.2296,0.2353,0.2405,0.2424,0,0,0.1778,0.1773,0.183,0.1805,0.1925,0.1895,0.2023,0.2087,0.2102,0.2197,0.2202,0.228,0.2298,0.2355,0.2532,0.2548,0,0,0,0.1859,0.19,0.1934,0.1989,0.2038,0.2084,0.2129,0.2153,0.2234,0.2147,0.2315,0.2326,0.236,0.2385,0.2399,0.243,0.2254,0.2254,0.2254,0.199,0.2003,0.21,0.2128,0.2182,0.2228,0.2275,0.2316,0.2313,0.2353,0.2382,0.2487,0.2517,0.2527,0.2559,0.2407,0.2408,0.2408,0.2408,0.214,0.2203,0.2197,0.2288,0.2303,0.2382,0.243,0.2426,0.2504,0.2466,0.2496,0.2456,0.2543,0.2573,0.2411,0.241,0.241,0.241,0.241,0.2231,0.2263,0.2289,0.2372,0.2436,0.2462,0.2537,0.2547,0.2558,0.2588,0.2623,0.2622,0.2627,0.2603,0.2603,0.2604,0.2604,0.2604,0.2605,0.2316,0.2344,0.2404,0.2464,0.2502,0.2555,0.2602,0.2641,0.2688,0.269,0.2691,0.2688,0.2547,0.2514,0.261,0.2609,0.2609,0.2608,0.2608,0.247,0.2436,0.253,0.2569,0.2641,0.2706,0.2717,0.2797,0.2831,0.2869,0.2858,0.2751,0.2748,0.2738,0.2711,0.2852,0.2852,0.2852,0.2852,0.2549,0.2547,0.2646,0.2708,0.2769,0.2789,0.29,0.2938,0.2973,0.2997,0.2977,0.294,0.2929,0.2933,0.2918,0.2893,0.3078,0.3078,0.3078,0.2647,0.2651,0.2742,0.2772,0.283,0.2881,0.2987,0.3061,0.3094,0.3088,0.3016,0.3006,0.2948,0.2927,0.2922,0.2899,0.2854,0,0]}]]